CAPE
1430 1714 1955 2222 2034 1920 1780 1802 1628 1454 1340 1041 1042 196 1 152 760 1304 1740 1757 2113 2033 2167 2720 2361 2211 2106 2201 2136 1904 1934 2167 3128 2461 2727 3027 3007 2974 3204 3160 3055 3217 3066 3411 3205 2529 2926 2983 2790 3379 3472 3705 3966 3560 3782 4091 4163 4164 4386 4086 3974 2907 2506
1757 1837 1886 1704 1824 1750 2025 1954 1805 1534 1305 1316 1508 1164 892 597 679 1038 1665 1603 1917 2028 2110 2656 2769 2550 2336 2018 2261 2120 2038 2315 2867 2827 2842 2760 3194 2748 3082 2982 3080 3119 2910 3242 3095 2660 2927 2860 2739 3122 3400 3609 3779 3819 4251 4212 4174 4349 4308 4172 3585 3830 3318
1570 1678 1681 2000 1806 1534 2026 1521 1539 1718 1608 1507 1472 1161 847 1155 1046 1048 1604 1546 1766 2005 1914 2413 2925 2723 2791 2261 2407 2325 2291 2430 2603 2626 2349 2756 2760 3021 2761 2662 2882 3090 3123 3058 2691 2992 2854 3244 2721 3051 3275 3290 3439 3544 4363 4200 4085 4112 4218 4087 3769 3517 3946
1431 1446 1524 1764 2073 2050 2196 1705 1365 1505 1905 1751 1836 1374 1692 1646 1405 1740 1844 1556 1684 2056 1805 1998 2629 2898 2772 2690 2460 2410 2486 2511 2520 2442 2307 2204 2520 2498 2545 2537 2502 2818 2696 2673 2914 3046 2925 2751 2785 2841 3659 3194 3308 3990 4203 4020 3862 3812 4130 4124 3679 3634 3832
1206 1359 1479 1722 1893 1908 2055 2167 2306 1764 1566 1350 1272 1239 1245 1784 1360 1879 2272 2094 1959 2084 1910 1809 2163 2652 2707 2629 2449 2426 2363 2520 2530 2410 2258 2063 2071 1989 1935 2244 2140 2196 2238 2279 2497 2328 2328 2516 2994 3095 3136 2797 3121 4047 3891 3773 3644 3762 3828 4207 3569 3731 3747
926 1176 1319 1374 1466 1566 1366 1324 1724 1961 1412 1107 984 1106 1200 1399 1154 945 2230 2640 2335 2425 2216 2198 2177 2433 2532 2351 2179 2116 2246 2253 2331 2346 2231 2062 1837 1782 1825 1613 1940 1715 1995 2011 2357 1752 2902 2312 2558 3428 3164 2934 3298 3695 3723 3468 3856 3691 3755 4312 3956 3589 3506
728 781 994 1150 1156 1178 1096 970 1098 2249 2360 1882 1378 1717 1494 1283 1189 898 1051 2597 2551 2808 2770 2659 2410 2550 2628 2314 1941 1760 2029 2026 2067 2120 2176 2045 1979 1789 1730 1718 1690 1561 1648 1880 1740 1961 3142 2339 2380 2754 2721 2970 2906 3184 3300 3348 3698 3719 3759 4289 3994 3929 3606
646 712 825 942 978 1056 1126 1024 1187 1461 2311 2278 1765 1476 1422 1316 1202 1170 1001 1249 2392 2886 3049 2735 2430 2428 2703 2664 2042 2048 2065 2038 2027 1945 1970 1937 1785 1970 1746 1622 1540 1449 1095 1579 1498 1779 1979 2284 2384 2392 2507 2460 2470 2305 2714 3146 3347 3473 3513 3692 4130 3913 4121
603 573 591 723 900 997 1180 1069 1130 1401 1534 1622 1902 2002 1580 1286 1294 1183 1153 943 1564 2092 2521 2918 2710 2190 2067 2383 2478 2390 2530 2357 2405 2170 1932 1795 1617 1477 1586 1573 1290 1571 1376 1339 1466 1436 1405 2019 1962 2304 2424 2409 2418 2260 2347 2617 2845 2941 3090 3593 3988 3953 3704
525 597 591 596 752 936 1060 1228 1127 1395 1556 1483 1476 1617 1336 1122 973 912 914 897 1135 1520 1705 1784 2076 2129 1670 1932 2229 2335 2219 2438 2607 2489 2159 1809 1558 1338 1169 1129 1329 1103 1417 1252 1269 1372 1422 1662 1741 1952 2365 2390 2421 2317 2130 2579 2592 2719 2842 3239 3480 3603 3429
575 536 508 507 583 743 975 1168 1251 1215 1372 1467 1315 1415 1398 1090 1174 1261 1234 1311 1064 1320 1310 1062 1230 1543 1580 1475 1609 1860 1926 1720 2234 2496 2453 2122 1686 1348 1065 853 920 1168 1034 1224 1137 1069 1230 1687 1638 1787 2110 2214 2184 2559 2104 2712 2536 2430 2547 2731 2996 3218 3126
535 577 482 473 498 585 688 897 1062 1124 1123 1093 1211 1231 1321 1234 1173 1079 984 1048 1617 1459 1351 1460 1965 1415 1251 1790 1773 1554 1966 2858 2066 1902 2092 2305 2131 1601 1100 880 456 536 1027 974 950 927 909 1219 1633 1752 2050 2058 1969 2328 2482 2202 2695 2335 2220 2454 2852 3135 3122
227 348 360 350 384 475 544 618 655 832 970 996 957 1044 1125 1148 1124 1115 1256 1179 1022 1172 1538 1904 1698 1490 1386 1793 2466 2726 2545 2125 1938 1994 1684 1532 1674 1608 1216 1245 1295 195 815 904 788 674 560 791 1402 1829 2006 1986 1871 1931 2389 2179 2007 2398 2658 2419 2279 2501 2920
102 122 140 165 175 266 418 519 530 619 640 631 904 949 845 1024 957 929 974 1065 906 708 950 1397 1805 1694 1864 1915 1705 1763 2121 2122 1872 1718 1632 1630 1826 1591 1146 1304 1124 858 664 528 854 822 584 309 754 1406 1933 1981 1783 1724 2013 2223 2096 1941 2342 2757 2665 2390 2226
9 126 184 294 297 217 0 223 418 497 598 677 704 716 678 813 870 834 778 798 687 698 1102 1120 1411 1405 1418 1484 1710 2069 2183 1952 1909 1637 1675 1616 1463 1323 1077 1091 1249 1196 976 300 788 805 784 386 424 892 1416 1939 1790 1643 1721 2185 2176 2056 2162 2366 2455 2546 2579
1 0 73 155 236 346 325 256 187 243 324 394 595 497 452 594 590 445 558 549 424 548 802 1285 1324 1324 1372 1496 1438 1626 2152 1801 1349 1661 1801 1851 1716 1478 1270 1116 1333 1281 953 708 651 501 715 715 842 621 964 1394 1737 1626 1624 1800 2247 2373 2090 2308 2444 2252 2221
0 0 148 158 168 208 324 397 351 251 285 350 372 471 372 36 356 412 404 373 311 473 501 729 1062 914 1035 1176 1244 1332 1835 1999 1644 1458 1710 1824 1745 1653 1424 1203 1331 1225 950 1153 890 722 566 559 586 805 702 915 1247 1574 1542 1541 1890 2211 2076 2040 2312 2463 2266
0 0 121 206 240 262 231 270 314 331 431 427 331 376 333 319 179 206 357 449 424 356 298 395 419 507 611 624 883 1091 980 1399 1710 1459 1390 1403 1266 1411 1381 1269 1150 1100 950 1138 1302 895 821 821 752 825 1201 1001 856 1097 1386 1471 1510 1822 2059 1970 2052 2350 2485
0 0 0 0 111 200 201 230 266 325 311 339 340 381 391 354 291 156 225 308 394 386 379 286 263 306 353 403 487 684 1006 949 1266 1492 1674 1852 1988 2111 2174 1872 1602 1489 1601 1623 1728 1488 1007 799 701 920 1350 1558 1050 806 982 1194 1372 1421 1571 1826 1851 1979 2271
0 0 0 0 0 0 0 0 18 175 190 226 287 321 326 296 258 204 102 161 163 140 151 162 227 278 347 356 294 345 572 683 833 940 1170 1255 1164 1861 1905 1816 1890 2354 2360 2220 1839 1340 1367 1290 856 924 1161 1417 1537 1707 1576 1106 1012 1173 1228 1212 1395 1594 1776
0 0 0 0 0 0 0 0 0 0 0 0 102 188 251 259 184 202 283 337 338 296 343 366 337 358 418 490 496 441 504 558 581 634 804 1027 1259 1319 1456 1532 1422 1783 2157 2165 2085 1504 1264 1706 1787 1598 1744 1753 1690 1658 1716 1509 1470 1176 892 903 954 972 1354
0 0 0 0 0 0 0 0 0 0 0 0 0 0 0 46 78 130 150 205 186 205 186 233 268 314 376 406 490 555 614 642 611 601 617 637 792 1077 1178 1262 1344 1460 1885 2100 2229 2265 1794 1957 1945 1917 1888 1559 1730 1567 1426 1532 1543 1459 1207 987 957 942 908
0 0 0 0 0 0 0 0 0 0 0 0 0 0 0 0 0 0 0 0 0 0 0 0 0 92 186 238 296 372 514 603 618 666 663 695 703 724 1114 1195 1160 1244 1642 1914 2079 2248 1953 2031 2288 2390 2324 2192 1962 1748 1486 1492 1585 1563 1435 1256 1050 906 890
0 0 0 0 0 0 0 0 0 0 0 0 0 0 0 0 0 0 0 0 0 0 0 0 0 0 0 0 0 0 21 200 293 378 454 590 695 742 726 773 756 960 1089 1107 1304 1436 1905 2188 2194 2130 2292 2273 2068 1795 1650 1571 1655 1616 1597 1434 1394 1324 1089
0 0 0 0 0 0 0 0 0 0 0 0 0 0 0 0 0 0 0 0 0 0 0 0 0 0 0 0 0 0 0 1 6 44 261 482 824 727 628 592 504 569 792 885 888 1087 1347 1482 1606 1791 1998 2206 2344 2501 2322 2019 1789 1510 1383 1394 1386 1424 1403
0 0 0 0 0 0 0 0 0 0 0 0 0 0 0 0 0 0 0 0 0 0 0 0 0 0 0 0 0 0 0 0 0 0 98 495 576 532 691 418 469 503 599 692 777 839 963 1299 1419 1577 1737 1763 1800 2251 2500 2388 2338 2099 1633 1422 1284 1322 1393
0 0 0 0 0 0 0 0 0 0 0 0 0 0 0 0 0 0 0 0 0 0 12 5 6 1 0 0 0 0 0 0 0 0 0 572 496 763 1178 667 334 298 397 543 700 907 891 862 1084 1270 1428 1551 1618 1775 2025 2258 2256 2254 2201 2094 1820 1412 1244
0 0 0 0 0 0 0 0 0 0 0 0 0 0 0 0 0 0 0 0 0 0 0 3 0 8 0 0 0 0 0 0 0 0 0 0 62 1310 830 815 945 860 537 279 354 500 718 883 864 903 1065 1188 1266 1364 1462 1990 2346 1787 2185 2439 2436 2200 1935
0 0 0 0 0 0 0 0 0 0 0 0 0 0 0 0 0 0 0 0 0 0 0 0 1 10 2 0 0 0 0 0 0 0 0 3 133 0 0 2 208 759 976 824 834 827 770 715 690 783 799 849 920 1302 1584 1670 1229 1360 1414 1670 2094 2318 2560
0 0 0 0 0 0 0 0 0 0 0 0 0 0 0 0 0 0 0 0 0 0 0 0 0 0 17 6 0 0 0 0 0 0 0 1 0 0 0 3 127 432 825 949 1036 1027 885 812 770 533 685 747 797 798 816 854 932 1059 1436 1610 1727 2004 2228
0 0 0 0 0 0 0 0 0 0 0 0 0 0 0 0 0 0 0 0 0 0 0 0 0 0 2 4 1 0 0 0 0 0 4 0 0 1 32 8 0 0 32 1002 1240 1027 560 127 37 25 110 391 538 620 710 811 1041 1037 1043 1287 1469 1670 1840
0 0 0 0 0 0 0 0 0 0 0 0 0 0 0 0 0 0 0 0 0 0 0 0 0 0 0 3 5 0 0 0 0 0 0 0 0 0 0 0 0 0 40 45 1 5 25 80 38 17 2 0 0 224 604 953 1116 1238 1254 1202 1344 1606 1655
0 0 0 0 0 0 0 0 0 0 0 0 0 0 0 0 0 0 0 0 0 0 0 0 2 0 0 0 2 1 0 0 0 1 0 0 0 0 0 0 0 0 1 0 0 0 0 1 2 0 0 0 0 0 31 47 601 992 1122 1229 1406 1475 1678
0 0 0 0 0 0 0 1 0 1 0 2 0 0 0 0 0 0 0 0 0 1 2 3 9 3 0 0 0 9 0 0 2 0 0 0 0 0 0 0 0 0 0 0 0 0 0 0 0 0 0 0 0 0 0 0 114 195 356 826 1181 1277 1406
0 0 0 0 0 0 0 5 7 4 6 2 0 0 0 0 0 0 0 0 0 2 7 14 21 16 2 0 6 14 15 26 0 0 0 0 0 0 0 0 0 0 0 0 0 0 0 0 0 0 0 0 0 0 0 0 0 0 5 125 686 1049 1271
0 0 0 1 0 6 11 23 15 11 7 2 0 0 0 0 0 12 14 14 10 6 9 38 27 13 3 4 11 20 21 9 3 0 0 0 0 0 0 0 0 0 0 0 0 0 0 0 0 0 0 0 0 0 0 0 0 0 0 0 114 544 1137
0 0 0 0 2 9 24 20 21 12 12 5 4 0 0 0 2 13 8 16 8 12 21 20 26 20 10 26 34 15 38 21 10 1 0 0 0 0 0 0 0 0 0 0 0 0 0 0 0 0 0 0 0 0 0 0 0 0 0 0 0 0 262
0 0 0 0 5 20 17 30 28 19 14 15 8 0 0 0 11 2 2 3 2 6 20 25 24 21 22 15 20 25 28 11 12 17 4 0 0 0 0 0 0 0 0 0 0 0 0 0 0 0 0 0 0 0 0 0 0 0 0 0 0 0 0
Wind_Speed
19 20 17 17 14 13 15 12 12 12 15 15 14 10 nan 13 17 17 16 14 12 11 9 7 4 3 3 6 8 9 9 8 9 8 7 7 6 6 6 6 6 7 7 6 6 6 6 5 4 4 4 5 6 6 7 7 6 7 6 5 4 4 4
24 19 16 16 16 15 14 14 13 14 15 16 13 12 12 12 13 16 16 15 14 12 10 10 7 4 3 5 8 10 9 8 9 10 10 8 8 6 6 7 6 6 6 6 6 6 5 5 3 3 2 3 4 4 4 5 6 6 5 5 5 4 4
22 21 18 16 17 15 12 14 10 13 15 16 14 11 12 14 12 14 15 15 15 15 13 12 10 6 6 5 8 8 9 8 8 9 9 9 8 7 6 7 7 6 5 5 4 5 5 5 3 2 1 2 2 2 3 3 5 6 5 4 5 4 4
22 23 22 21 21 18 14 11 11 13 16 18 17 14 16 16 16 15 14 15 16 16 15 13 12 9 6 7 7 8 9 8 8 9 10 11 10 10 9 8 8 7 6 6 4 4 4 5 2 3 1 1 2 1 1 1 3 4 5 4 4 4 4
23 22 22 21 21 20 18 17 16 18 16 18 22 18 17 19 18 18 15 13 15 15 15 15 13 11 9 8 8 9 9 9 8 9 10 11 12 12 12 10 8 8 7 7 7 5 7 5 4 3 3 2 3 2 2 3 2 2 4 3 4 4 3
20 19 22 23 23 22 21 19 16 15 16 17 17 11 15 17 17 17 17 14 13 14 16 18 15 14 12 9 9 10 11 10 9 9 10 11 13 12 13 12 10 10 10 7 9 6 7 5 5 6 4 3 4 2 3 3 3 2 3 2 2 3 2
24 19 16 22 24 25 23 20 20 16 16 16 12 14 15 18 17 16 18 15 13 14 16 17 16 15 13 11 9 11 11 11 10 9 10 10 12 12 12 13 13 10 12 10 10 9 10 7 6 6 5 6 5 4 3 3 3 3 4 4 2 4 3
27 24 24 22 24 26 25 25 24 22 20 18 18 17 19 21 22 18 17 19 14 14 15 16 15 16 15 12 11 11 12 12 12 10 10 10 12 13 12 12 14 13 13 12 10 10 11 9 9 7 7 7 6 5 5 4 3 3 4 4 4 3 5
28 29 29 29 28 27 28 27 26 25 24 22 20 19 17 19 30 35 35 33 29 25 24 22 16 16 17 15 15 14 13 13 13 12 10 10 12 12 13 13 13 14 13 13 12 11 11 11 10 9 8 8 7 5 6 5 4 3 3 4 4 4 5
32 32 30 29 29 29 30 30 28 29 28 26 26 26 26 29 35 36 34 31 31 31 29 24 19 19 20 20 19 20 20 17 13 14 12 11 12 12 14 15 14 13 14 13 14 12 12 11 11 12 10 9 9 7 6 6 4 4 4 4 4 4 4
34 33 33 33 33 31 32 33 31 29 29 28 26 26 27 31 36 35 32 29 26 27 28 25 26 24 24 24 23 22 21 23 21 16 14 13 14 14 15 15 15 14 13 14 14 14 12 13 12 12 12 10 9 9 7 7 5 5 4 4 4 3 2
33 34 35 34 34 34 34 31 30 30 31 31 30 28 28 32 38 40 34 30 27 28 27 22 22 23 26 26 26 24 25 24 23 24 26 26 25 23 21 17 14 16 13 13 13 15 13 13 12 12 12 11 9 10 8 8 8 5 4 5 5 4 3
34 33 34 35 35 34 32 33 33 32 32 33 34 33 30 31 37 39 34 32 33 32 29 26 29 32 31 31 29 30 29 27 25 24 25 26 26 24 25 27 24 19 15 13 13 11 14 13 12 13 12 11 10 9 9 8 8 8 6 6 6 6 5
37 36 36 36 36 36 36 34 34 33 32 33 35 35 33 30 31 33 32 31 33 36 33 29 34 36 35 33 32 33 30 28 28 28 27 26 26 27 28 27 25 26 26 19 12 11 9 13 11 13 13 12 10 9 9 9 8 7 7 7 6 6 5
nan 36 34 35 36 36 nan 35 34 33 33 34 34 35 34 31 30 31 32 31 33 35 32 26 31 35 36 36 35 33 31 29 27 27 26 27 28 28 26 27 27 25 22 24 25 22 17 11 13 12 12 13 12 11 10 10 9 9 8 7 6 7 7
nan nan nan 37 38 39 39 38 35 36 37 36 36 35 36 33 30 30 29 29 31 31 30 30 31 31 33 35 35 33 30 29 28 27 27 28 29 27 24 25 25 25 23 22 22 21 20 21 17 13 13 14 13 12 11 11 11 9 7 7 7 6 5
nan nan 39 39 38 40 41 41 39 37 38 37 36 36 33 nan 32 31 30 29 31 29 27 29 30 29 30 35 35 34 32 30 30 28 29 29 29 27 26 24 22 23 22 20 20 22 20 18 18 17 12 13 15 13 11 11 11 11 9 8 9 7 6
nan nan 37 39 40 40 41 43 43 42 42 42 40 37 34 34 35 32 31 33 33 30 24 24 28 30 30 32 33 30 30 29 29 31 31 31 30 29 28 25 24 22 20 20 21 22 21 17 14 15 15 11 12 14 13 12 11 14 12 10 10 9 8
nan nan nan nan 39 40 41 41 42 42 44 43 43 41 40 40 41 41 40 39 37 33 28 25 27 28 30 29 29 29 29 28 29 29 30 30 29 29 29 28 27 25 25 24 25 29 24 18 14 12 15 17 14 10 13 13 12 13 15 14 12 10 9
nan nan nan nan nan nan nan nan nan 41 42 43 43 44 44 43 43 43 43 45 42 40 35 33 32 31 31 31 28 25 26 28 29 29 28 28 28 28 29 30 29 28 28 27 28 27 27 23 17 14 15 17 19 19 19 18 14 11 13 14 14 12 10
nan nan nan nan nan nan nan nan nan nan nan nan 44 43 45 47 47 45 44 44 47 45 41 40 39 37 35 32 25 22 22 25 28 30 30 28 29 29 30 30 30 29 30 30 28 27 29 30 26 23 21 21 21 20 20 19 25 22 16 13 12 10 11
nan nan nan nan nan nan nan nan nan nan nan nan nan nan nan nan nan 48 46 45 48 46 44 43 41 39 35 31 26 23 21 23 26 29 29 30 30 31 31 30 29 28 29 29 29 30 30 30 27 24 22 20 19 19 17 20 23 24 23 19 18 18 19
nan nan nan nan nan nan nan nan nan nan nan nan nan nan nan nan nan nan nan nan nan nan nan nan nan nan 36 32 29 27 26 25 25 28 30 32 34 35 34 32 29 29 29 29 30 30 31 32 31 29 26 23 20 18 17 17 21 23 21 22 22 24 21
nan nan nan nan nan nan nan nan nan nan nan nan nan nan nan nan nan nan nan nan nan nan nan nan nan nan nan nan nan nan nan 30 28 27 29 31 34 36 38 36 33 32 32 31 30 30 31 33 32 30 27 26 24 20 18 16 18 20 23 22 23 25 24
nan nan nan nan nan nan nan nan nan nan nan nan nan nan nan nan nan nan nan nan nan nan nan nan nan nan nan nan nan nan nan nan nan nan 29 29 30 32 34 36 34 32 31 30 30 28 27 27 29 29 28 27 26 21 18 17 18 18 19 23 26 26 25
nan nan nan nan nan nan nan nan nan nan nan nan nan nan nan nan nan nan nan nan nan nan nan nan nan nan nan nan nan nan nan nan nan nan nan 31 30 30 30 32 33 31 28 27 28 27 26 27 27 27 26 27 28 27 23 20 21 23 20 20 25 27 27
nan nan nan nan nan nan nan nan nan nan nan nan nan nan nan nan nan nan nan nan nan nan nan nan nan nan nan nan nan nan nan nan nan nan nan 35 33 32 31 31 30 28 25 24 24 23 25 27 28 28 28 29 29 27 26 25 23 24 22 22 23 26 28
nan nan nan nan nan nan nan nan nan nan nan nan nan nan nan nan nan nan nan nan nan nan nan nan nan nan nan nan nan nan nan nan nan nan nan nan nan 37 34 32 30 28 25 25 24 23 26 29 30 28 28 29 29 29 28 28 27 31 31 30 26 26 26
nan nan nan nan nan nan nan nan nan nan nan nan nan nan nan nan nan nan nan nan nan nan nan nan nan nan nan nan nan nan nan nan nan nan nan nan 43 nan nan nan 35 32 29 27 27 27 28 31 33 32 31 31 33 33 32 32 39 39 31 27 22 18 20
nan nan nan nan nan nan nan nan nan nan nan nan nan nan nan nan nan nan nan nan nan nan nan nan nan nan nan nan nan nan nan nan nan nan nan nan nan nan nan nan 41 39 37 34 33 32 32 32 35 37 38 37 37 37 38 38 34 26 26 25 20 16 16
nan nan nan nan nan nan nan nan nan nan nan nan nan nan nan nan nan nan nan nan nan nan nan nan nan nan nan nan nan nan nan nan nan nan nan nan nan nan nan nan nan nan nan 43 42 41 39 36 nan nan 36 38 39 38 37 38 36 32 29 26 25 23 23
nan nan nan nan nan nan nan nan nan nan nan nan nan nan nan nan nan nan nan nan nan nan nan nan nan nan nan nan nan nan nan nan nan nan nan nan nan nan nan nan nan nan nan nan nan nan nan nan nan nan nan nan nan 36 35 36 37 37 36 36 33 32 29
nan nan nan nan nan nan nan nan nan nan nan nan nan nan nan nan nan nan nan nan nan nan nan nan nan nan nan nan nan nan nan nan nan nan nan nan nan nan nan nan nan nan nan nan nan nan nan nan nan nan nan nan nan nan nan nan 36 37 38 38 37 37 37
nan nan nan nan nan nan nan nan nan nan nan nan nan nan nan nan nan nan nan nan nan nan nan nan nan nan nan nan nan nan nan nan nan nan nan nan nan nan nan nan nan nan nan nan nan nan nan nan nan nan nan nan nan nan nan nan 39 39 41 38 35 32 32
nan nan nan nan nan nan nan nan nan nan nan nan nan nan nan nan nan nan nan nan nan nan nan nan nan nan nan nan nan nan nan nan nan nan nan nan nan nan nan nan nan nan nan nan nan nan nan nan nan nan nan nan nan nan nan nan nan nan nan 40 37 34 32
nan nan nan nan nan nan nan nan nan nan nan nan nan nan nan nan nan nan nan nan nan nan nan nan nan nan nan nan nan nan nan nan nan nan nan nan nan nan nan nan nan nan nan nan nan nan nan nan nan nan nan nan nan nan nan nan nan nan nan nan 41 37 33
nan nan nan nan nan nan nan nan nan nan nan nan nan nan nan nan nan nan nan nan nan nan nan nan nan nan nan nan nan nan nan nan nan nan nan nan nan nan nan nan nan nan nan nan nan nan nan nan nan nan nan nan nan nan nan nan nan nan nan nan nan nan 38
nan nan nan nan nan nan nan nan nan nan nan nan nan nan nan nan nan nan nan nan nan nan nan nan nan nan nan nan nan nan nan nan nan nan nan nan nan nan nan nan nan nan nan nan nan nan nan nan nan nan nan nan nan nan nan nan nan nan nan nan nan nan nan
Wind_Direction
236 236 240 252 251 248 239 227 232 238 255 251 245 273 nan 275 272 269 266 263 262 263 260 257 257 221 216 219 222 224 217 205 201 216 214 202 196 181 180 176 181 172 163 162 146 127 132 121 109 114 110 111 123 110 113 117 116 105 114 117 127 82 78
226 236 245 246 250 254 252 234 229 243 249 240 237 248 240 248 277 275 269 271 266 268 267 262 265 237 213 227 233 236 231 215 207 208 216 209 203 197 192 184 191 183 170 160 154 148 153 133 130 133 118 121 119 122 123 126 118 116 118 117 116 116 93
227 220 221 237 249 257 266 268 233 240 240 233 239 238 233 233 264 274 274 273 267 264 262 259 261 260 218 221 237 247 246 229 216 216 216 219 210 214 205 196 191 190 180 172 158 155 153 162 146 157 145 123 128 131 148 133 125 125 122 114 116 117 114
228 215 209 222 231 235 232 243 251 236 229 228 236 240 230 233 241 256 266 274 269 263 266 259 262 260 246 230 236 246 252 243 227 220 218 215 213 216 216 205 201 200 188 188 181 180 175 178 165 173 157 192 197 200 190 165 146 140 136 129 122 117 108
225 207 206 225 229 225 222 216 220 228 236 238 235 217 223 219 223 239 253 263 271 271 267 270 262 259 251 245 239 244 258 254 239 228 223 217 216 214 214 213 210 208 205 197 206 212 201 202 205 193 184 204 212 229 238 229 211 169 158 157 146 146 106
231 209 205 216 227 228 225 219 222 232 239 253 263 260 228 219 219 227 246 261 261 262 258 253 255 254 252 253 245 251 254 253 244 235 232 227 222 220 214 214 218 211 214 212 219 214 213 213 218 217 221 218 227 255 239 231 223 235 200 205 179 169 148
225 215 217 215 224 225 219 216 214 232 236 236 252 257 245 231 230 233 232 256 260 265 264 259 255 252 252 251 252 254 265 267 261 246 238 237 230 226 224 219 222 221 218 222 221 223 229 226 228 233 235 223 218 247 254 254 235 235 226 228 224 194 214
220 219 223 226 229 225 221 219 219 221 228 236 240 249 247 233 229 234 232 239 246 256 261 262 253 241 231 245 264 255 262 271 269 262 246 241 233 232 231 227 224 225 227 234 227 233 236 240 229 235 245 237 234 221 244 269 265 253 237 236 235 204 218
223 221 226 223 226 227 225 225 226 222 223 228 238 240 247 232 223 222 215 209 213 218 220 224 235 236 237 238 237 241 248 262 265 269 264 250 239 236 235 231 228 229 232 234 235 238 242 244 242 243 243 246 247 241 230 253 268 267 264 249 248 226 205
229 227 228 227 225 226 226 226 227 224 222 223 225 233 236 233 233 235 236 225 214 212 214 214 215 233 233 234 236 234 229 231 253 272 266 261 253 247 236 231 230 229 230 228 236 244 239 249 253 247 247 248 243 247 238 246 251 259 268 273 260 239 213
238 236 233 230 227 226 228 227 226 227 226 223 224 229 234 229 226 226 229 240 243 233 226 212 211 209 225 230 232 225 224 232 228 233 253 262 266 259 248 238 233 234 229 227 226 232 239 247 251 251 253 255 248 243 241 246 255 243 246 250 252 266 254
242 239 236 233 231 230 230 230 230 228 228 227 225 225 226 224 224 226 219 213 222 243 240 223 221 214 221 228 229 223 220 222 230 238 242 237 232 233 233 239 248 237 233 234 226 221 232 245 250 253 256 254 256 250 244 243 251 249 235 245 253 260 251
240 236 233 232 231 232 232 232 232 232 232 230 229 229 228 223 221 223 220 215 211 210 224 234 237 233 219 217 227 229 221 221 222 227 234 237 235 236 236 230 222 228 243 249 234 230 228 234 243 252 257 257 257 256 252 247 240 243 241 237 241 253 251
242 235 230 227 229 231 234 235 235 235 234 235 235 233 235 233 227 224 229 227 218 215 211 215 230 235 232 227 222 224 222 223 228 228 231 237 242 241 237 233 233 233 225 229 245 263 253 238 246 246 255 262 261 256 252 252 247 243 245 241 242 245 247
nan 243 238 233 229 229 nan 236 241 241 239 239 240 238 240 241 234 226 224 229 231 227 219 213 224 236 239 235 228 223 221 225 231 230 231 238 242 243 240 243 242 238 238 241 235 225 224 240 264 268 258 259 262 261 252 251 248 245 251 255 244 241 244
nan nan nan 233 231 229 230 232 238 242 241 241 242 243 246 248 245 239 234 231 232 230 224 220 224 234 241 241 237 228 225 231 234 235 236 240 246 246 243 245 247 249 248 244 242 235 229 222 220 255 282 270 264 263 259 253 249 259 306 288 260 262 258
nan nan 232 230 230 231 228 228 231 238 240 241 245 243 242 nan 254 256 253 250 243 238 234 226 223 226 233 236 233 234 233 235 236 236 237 240 242 241 240 241 246 252 253 252 255 252 237 221 218 221 247 291 284 277 269 265 265 301 310 320 328 296 285
nan nan 235 230 227 227 228 227 228 233 240 242 241 243 241 242 245 250 253 251 249 253 253 238 226 228 235 239 239 232 231 232 234 237 239 237 236 240 245 242 233 230 238 253 259 257 257 242 224 219 230 253 290 295 285 276 290 304 308 319 328 320 296
nan nan nan nan 232 230 228 227 227 230 235 237 239 241 240 241 241 243 251 251 249 248 247 239 231 232 236 236 238 234 223 224 233 238 239 236 236 236 235 235 240 236 223 222 237 243 240 245 246 231 229 236 238 269 290 281 297 308 312 317 321 326 311
nan nan nan nan nan nan nan nan nan 230 236 236 237 239 240 242 243 244 252 257 255 251 247 244 240 240 242 242 241 237 230 226 228 233 236 236 234 236 236 235 237 236 234 232 234 238 245 242 236 235 235 236 242 244 239 247 252 287 303 310 316 317 306
nan nan nan nan nan nan nan nan nan nan nan nan 234 237 239 240 242 242 244 252 255 253 251 249 248 247 247 248 250 249 242 237 233 231 232 233 234 236 241 240 236 233 233 236 240 240 236 239 237 228 226 233 237 242 254 256 264 272 278 269 263 269 284
nan nan nan nan nan nan nan nan nan nan nan nan nan nan nan nan nan 242 242 246 252 252 251 250 250 250 251 251 252 256 258 255 245 237 236 236 235 237 238 240 241 237 235 234 238 238 240 241 242 240 238 238 239 241 244 262 274 268 274 280 284 284 269
nan nan nan nan nan nan nan nan nan nan nan nan nan nan nan nan nan nan nan nan nan nan nan nan nan nan 250 249 250 250 250 255 252 245 239 238 236 235 236 237 239 240 240 240 237 234 235 237 238 240 240 238 242 244 246 243 270 278 271 273 274 269 263
nan nan nan nan nan nan nan nan nan nan nan nan nan nan nan nan nan nan nan nan nan nan nan nan nan nan nan nan nan nan nan 251 250 250 246 239 238 238 236 235 239 240 238 238 232 227 229 230 232 233 236 235 232 237 234 236 237 252 272 276 272 271 267
nan nan nan nan nan nan nan nan nan nan nan nan nan nan nan nan nan nan nan nan nan nan nan nan nan nan nan nan nan nan nan nan nan nan 256 254 250 245 240 236 238 240 241 238 232 227 226 227 229 230 231 230 233 232 229 227 236 245 250 267 271 266 259
nan nan nan nan nan nan nan nan nan nan nan nan nan nan nan nan nan nan nan nan nan nan nan nan nan nan nan nan nan nan nan nan nan nan nan 263 260 257 252 246 241 236 235 234 233 228 226 225 226 226 228 227 227 228 230 229 233 241 247 252 262 268 258
nan nan nan nan nan nan nan nan nan nan nan nan nan nan nan nan nan nan nan nan nan nan nan nan nan nan nan nan nan nan nan nan nan nan nan 259 261 261 261 260 258 257 256 250 241 237 233 230 229 228 228 227 227 228 226 229 232 237 246 245 248 256 259
nan nan nan nan nan nan nan nan nan nan nan nan nan nan nan nan nan nan nan nan nan nan nan nan nan nan nan nan nan nan nan nan nan nan nan nan nan 260 259 260 264 265 267 267 262 250 240 237 237 240 238 233 230 230 230 228 225 229 233 236 242 249 260
nan nan nan nan nan nan nan nan nan nan nan nan nan nan nan nan nan nan nan nan nan nan nan nan nan nan nan nan nan nan nan nan nan nan nan nan 261 nan nan nan 258 260 261 261 261 256 247 240 239 240 239 234 232 232 232 233 239 235 239 240 239 242 265
nan nan nan nan nan nan nan nan nan nan nan nan nan nan nan nan nan nan nan nan nan nan nan nan nan nan nan nan nan nan nan nan nan nan nan nan nan nan nan nan 260 259 259 259 258 256 251 247 244 242 240 236 235 236 236 238 241 244 242 240 241 251 265
nan nan nan nan nan nan nan nan nan nan nan nan nan nan nan nan nan nan nan nan nan nan nan nan nan nan nan nan nan nan nan nan nan nan nan nan nan nan nan nan nan nan nan 258 259 255 253 250 nan nan 244 242 240 240 242 242 238 238 242 243 237 234 233
nan nan nan nan nan nan nan nan nan nan nan nan nan nan nan nan nan nan nan nan nan nan nan nan nan nan nan nan nan nan nan nan nan nan nan nan nan nan nan nan nan nan nan nan nan nan nan nan nan nan nan nan nan 249 247 245 242 239 237 237 235 236 235
nan nan nan nan nan nan nan nan nan nan nan nan nan nan nan nan nan nan nan nan nan nan nan nan nan nan nan nan nan nan nan nan nan nan nan nan nan nan nan nan nan nan nan nan nan nan nan nan nan nan nan nan nan nan nan nan 243 240 239 238 241 242 240
nan nan nan nan nan nan nan nan nan nan nan nan nan nan nan nan nan nan nan nan nan nan nan nan nan nan nan nan nan nan nan nan nan nan nan nan nan nan nan nan nan nan nan nan nan nan nan nan nan nan nan nan nan nan nan nan 250 246 246 242 241 244 247
nan nan nan nan nan nan nan nan nan nan nan nan nan nan nan nan nan nan nan nan nan nan nan nan nan nan nan nan nan nan nan nan nan nan nan nan nan nan nan nan nan nan nan nan nan nan nan nan nan nan nan nan nan nan nan nan nan nan nan 249 246 243 246
nan nan nan nan nan nan nan nan nan nan nan nan nan nan nan nan nan nan nan nan nan nan nan nan nan nan nan nan nan nan nan nan nan nan nan nan nan nan nan nan nan nan nan nan nan nan nan nan nan nan nan nan nan nan nan nan nan nan nan nan 246 246 248
nan nan nan nan nan nan nan nan nan nan nan nan nan nan nan nan nan nan nan nan nan nan nan nan nan nan nan nan nan nan nan nan nan nan nan nan nan nan nan nan nan nan nan nan nan nan nan nan nan nan nan nan nan nan nan nan nan nan nan nan nan nan 244
nan nan nan nan nan nan nan nan nan nan nan nan nan nan nan nan nan nan nan nan nan nan nan nan nan nan nan nan nan nan nan nan nan nan nan nan nan nan nan nan nan nan nan nan nan nan nan nan nan nan nan nan nan nan nan nan nan nan nan nan nan nan nan